Powrót do katalogu

COSMOS 767

AktywnyMilitariaLEO
NORAD 8291·PAYLOAD·🇷🇺 Russia

Wystrzelony Sep 17, 1975 z Plesetsk Cosmodrome

Loading…

Następne Przeloty (najbliższe 24 godziny)

TLE

ŚwieżeSource: Space-Track

Epoka: Sep 14, 2026, 08:42 UTC

1 08291U 75086G   26257.36258285 -.00000027  00000-0 -71587-4 0  9990
2 08291  74.0061 244.6090 0020121 351.1928  77.4016 12.48526861324108

Śledź COSMOS 767 w czasie rzeczywistym z AllMySat

Download on the App Store